EZY188 EGLL-EGAC

Flight info

Callsign EZY188
Flight time 0h 52m
Altitude 38000
Route UMLAT T418 WELIN T420 TNT UL28 RODOL UM65 TENSO L603 BELOX DCT REMSI DCT NINEB M148 MAGEE
Aircraft A21N/M-SDE2E3FGHIRWXY/LB1

Departure

Time 2026-05-04 02:26
Airport London Heathrow Airport (EGLL)

Arrival

Time 2026-05-04 03:18
Airport George Best Belfast City Airport (EGAC)
Time Latitude Longitude Altitude Speed Heading
2026-05-04 01:49 51.47315 -0.48596 92 ft 0 kts 270°
2026-05-04 02:15 51.47315 -0.48561 91 ft 4 kts 270°
2026-05-04 02:15 51.47315 -0.48527 91 ft 4 kts 276°
2026-05-04 02:15 51.47308 -0.48489 94 ft 4 kts 311°
2026-05-04 02:15 51.47290 -0.48476 91 ft 4 kts 360°
2026-05-04 02:16 51.47282 -0.48476 91 ft 2 kts 360°
2026-05-04 02:17 51.47284 -0.48476 91 ft 1 kts 360°
2026-05-04 02:17 51.47302 -0.48476 91 ft 4 kts 360°
2026-05-04 02:18 51.47341 -0.48476 91 ft 7 kts
2026-05-04 02:18 51.47399 -0.48474 91 ft 10 kts
2026-05-04 02:18 51.47478 -0.48473 92 ft 13 kts 358°
2026-05-04 02:18 51.47562 -0.48469 92 ft 13 kts 31°
2026-05-04 02:19 51.47578 -0.48316 92 ft 16 kts 90°
2026-05-04 02:19 51.47579 -0.48130 94 ft 18 kts 90°
2026-05-04 02:19 51.47579 -0.47921 92 ft 20 kts 89°
2026-05-04 02:19 51.47580 -0.47686 95 ft 22 kts 90°
2026-05-04 02:20 51.47581 -0.47429 91 ft 24 kts 90°
2026-05-04 02:20 51.47582 -0.47148 95 ft 26 kts 90°
2026-05-04 02:20 51.47586 -0.46847 93 ft 28 kts 83°
2026-05-04 02:20 51.47593 -0.46526 92 ft 30 kts 89°
2026-05-04 02:21 51.47594 -0.46232 92 ft 26 kts 89°
2026-05-04 02:21 51.47595 -0.45931 94 ft 28 kts 90°
2026-05-04 02:21 51.47596 -0.45609 95 ft 30 kts 90°
2026-05-04 02:21 51.47597 -0.45404 92 ft 32 kts 90°
2026-05-04 02:22 51.47599 -0.45042 92 ft 33 kts 89°
2026-05-04 02:22 51.47599 -0.44662 92 ft 35 kts 89°
2026-05-04 02:22 51.47597 -0.44271 92 ft 35 kts 102°
2026-05-04 02:22 51.47591 -0.43927 91 ft 18 kts 87°
2026-05-04 02:23 51.47593 -0.43712 91 ft 20 kts 90°
2026-05-04 02:23 51.47596 -0.43578 94 ft 7 kts 70°
2026-05-04 02:23 51.47630 -0.43506 92 ft 10 kts 48°
2026-05-04 02:23 51.47687 -0.43424 95 ft 13 kts 15°
2026-05-04 02:24 51.47766 -0.43442 93 ft 5 kts 304°
2026-05-04 02:24 51.47768 -0.43488 92 ft 0 kts 270°
2026-05-04 02:25 51.47767 -0.43578 95 ft 35 kts 270°
2026-05-04 02:25 51.47765 -0.44397 92 ft 109 kts 270°
2026-05-04 02:26 51.47760 -0.45939 90 ft 166 kts 269°
2026-05-04 02:26 51.47752 -0.47846 645 ft 168 kts 270°
2026-05-04 02:26 51.47757 -0.49709 1377 ft 168 kts 271°
2026-05-04 02:26 51.47715 -0.51630 2008 ft 178 kts 265°
2026-05-04 02:27 51.47688 -0.52067 2124 ft 183 kts 265°
2026-05-04 02:27 51.47707 -0.54260 2661 ft 214 kts 283°
2026-05-04 02:27 51.48293 -0.56631 3241 ft 243 kts 297°
2026-05-04 02:27 51.49096 -0.59135 4038 ft 260 kts 298°
2026-05-04 02:28 51.49953 -0.61743 4949 ft 268 kts 298°
2026-05-04 02:28 51.50822 -0.64414 5933 ft 272 kts 297°
2026-05-04 02:28 51.51788 -0.67045 6956 ft 277 kts 311°
2026-05-04 02:28 51.53377 -0.68789 7927 ft 282 kts 342°
2026-05-04 02:29 51.55326 -0.69126 8920 ft 286 kts
2026-05-04 02:29 51.57330 -0.68969 9905 ft 292 kts
2026-05-04 02:29 51.59415 -0.68908 10686 ft 308 kts 359°
2026-05-04 02:29 51.61601 -0.68982 11247 ft 329 kts 357°
2026-05-04 02:30 51.63945 -0.69149 11859 ft 345 kts 356°
2026-05-04 02:30 51.66377 -0.69372 12715 ft 353 kts 355°
2026-05-04 02:30 51.68844 -0.69622 13621 ft 358 kts 355°
2026-05-04 02:30 51.71348 -0.69891 14514 ft 363 kts 355°
2026-05-04 02:31 51.73888 -0.70171 15366 ft 368 kts 354°
2026-05-04 02:31 51.76465 -0.70458 16198 ft 373 kts 354°
2026-05-04 02:31 51.79066 -0.70747 16997 ft 378 kts 354°
2026-05-04 02:31 51.81705 -0.71043 17782 ft 383 kts 354°
2026-05-04 02:32 51.84381 -0.71343 18535 ft 387 kts 354°
2026-05-04 02:32 51.87083 -0.71646 19254 ft 392 kts 354°
2026-05-04 02:32 51.89820 -0.71954 19955 ft 396 kts 354°
2026-05-04 02:32 51.92587 -0.72269 20623 ft 401 kts 354°
2026-05-04 02:33 51.95351 -0.72583 21259 ft 405 kts 354°
2026-05-04 02:33 51.98185 -0.72904 21882 ft 410 kts 354°
2026-05-04 02:33 52.01047 -0.73262 22485 ft 414 kts 351°
2026-05-04 02:33 52.03853 -0.74256 23132 ft 413 kts 341°
2026-05-04 02:34 52.06596 -0.75673 23771 ft 416 kts 339°
2026-05-04 02:34 52.09357 -0.77145 24366 ft 419 kts 339°
2026-05-04 02:34 52.12144 -0.78627 24946 ft 423 kts 339°
2026-05-04 02:34 52.14957 -0.80110 25509 ft 426 kts 339°
2026-05-04 02:35 52.17791 -0.81598 26038 ft 430 kts 339°
2026-05-04 02:35 52.20649 -0.83093 26565 ft 433 kts 339°
2026-05-04 02:35 52.23528 -0.84630 27062 ft 436 kts 337°
2026-05-04 02:35 52.26266 -0.86708 27536 ft 435 kts 327°
2026-05-04 02:36 52.28875 -0.89261 28000 ft 437 kts 325°
2026-05-04 02:36 52.31469 -0.91878 28450 ft 440 kts 325°
2026-05-04 02:36 52.34089 -0.94514 28887 ft 443 kts 325°
2026-05-04 02:36 52.36723 -0.97150 29311 ft 446 kts 326°
2026-05-04 02:37 52.39383 -0.99813 29726 ft 449 kts 325°
2026-05-04 02:37 52.42054 -1.02495 30135 ft 451 kts 325°
2026-05-04 02:37 52.44738 -1.05186 30518 ft 454 kts 325°
2026-05-04 02:37 52.47444 -1.07903 30883 ft 457 kts 326°
2026-05-04 02:38 52.50151 -1.10623 31355 ft 456 kts 326°
2026-05-04 02:38 52.52855 -1.13340 31816 ft 456 kts 326°
2026-05-04 02:38 52.55558 -1.16060 32274 ft 455 kts 326°
2026-05-04 02:38 52.58253 -1.18780 32711 ft 454 kts 326°
2026-05-04 02:39 52.60946 -1.21500 33134 ft 454 kts 326°
2026-05-04 02:39 52.63638 -1.24222 33542 ft 454 kts 326°
2026-05-04 02:39 52.66326 -1.26945 33971 ft 452 kts 326°
2026-05-04 02:39 52.68966 -1.29621 34333 ft 452 kts 326°
2026-05-04 02:40 52.71632 -1.32332 34705 ft 451 kts 326°
2026-05-04 02:40 52.74318 -1.35068 35053 ft 451 kts 326°
2026-05-04 02:40 52.76991 -1.37794 35391 ft 451 kts 326°
2026-05-04 02:40 52.79662 -1.40517 35707 ft 451 kts 326°
2026-05-04 02:41 52.82326 -1.43238 36027 ft 451 kts 326°
2026-05-04 02:41 52.84995 -1.45974 36334 ft 451 kts 326°
2026-05-04 02:41 52.87657 -1.48710 36600 ft 451 kts 326°
2026-05-04 02:41 52.90329 -1.51441 36894 ft 450 kts 326°
2026-05-04 02:42 52.92986 -1.54163 37234 ft 448 kts 326°
2026-05-04 02:42 52.95626 -1.56882 37600 ft 445 kts 326°
2026-05-04 02:42 52.98250 -1.59590 37920 ft 443 kts 326°
2026-05-04 02:42 53.00838 -1.62265 38019 ft 444 kts 326°
2026-05-04 02:43 53.06076 -1.67689 38012 ft 443 kts 326°
2026-05-04 02:43 53.11304 -1.73148 37989 ft 443 kts 326°
2026-05-04 02:44 53.16524 -1.78583 37982 ft 442 kts 326°
2026-05-04 02:44 53.20861 -1.83105 37979 ft 442 kts 326°
2026-05-04 02:45 53.26144 -1.88401 37980 ft 443 kts 328°
2026-05-04 02:45 53.31507 -1.93477 37989 ft 443 kts 328°
2026-05-04 02:46 53.36879 -1.98572 37990 ft 443 kts 328°
2026-05-04 02:46 53.42230 -2.03666 37999 ft 443 kts 328°
2026-05-04 02:47 53.47579 -2.08776 37991 ft 442 kts 328°
2026-05-04 02:47 53.52921 -2.13892 37991 ft 442 kts 328°
2026-05-04 02:48 53.58057 -2.19386 37988 ft 439 kts 317°
2026-05-04 02:48 53.60152 -2.23162 37995 ft 436 kts 304°
2026-05-04 02:48 53.61655 -2.27481 38001 ft 433 kts 292°
2026-05-04 02:49 53.63790 -2.36954 38011 ft 432 kts 288°
2026-05-04 02:49 53.65903 -2.46454 38009 ft 434 kts 290°
2026-05-04 02:50 53.68088 -2.55934 38011 ft 434 kts 289°
2026-05-04 02:50 53.70233 -2.65462 38011 ft 434 kts 289°
2026-05-04 02:51 53.72380 -2.74982 38012 ft 434 kts 289°
2026-05-04 02:51 53.74508 -2.84462 37656 ft 430 kts 289°
2026-05-04 02:52 53.75565 -2.89203 37396 ft 431 kts 289°
2026-05-04 02:52 53.76625 -2.93915 37057 ft 430 kts 290°
2026-05-04 02:52 53.77700 -2.98659 36465 ft 431 kts 290°
2026-05-04 02:52 53.78759 -3.03395 35806 ft 432 kts 290°
2026-05-04 02:53 53.79803 -3.08120 35130 ft 434 kts 290°
2026-05-04 02:53 53.80869 -3.12915 34432 ft 435 kts 290°
2026-05-04 02:53 53.81934 -3.17696 33723 ft 434 kts 290°
2026-05-04 02:53 53.82986 -3.22466 33090 ft 431 kts 290°
2026-05-04 02:54 53.84028 -3.27201 32502 ft 427 kts 290°
2026-05-04 02:54 53.85061 -3.31902 31904 ft 423 kts 290°
2026-05-04 02:54 53.86080 -3.36552 31322 ft 419 kts 291°
2026-05-04 02:54 53.87087 -3.41153 30756 ft 414 kts 291°
2026-05-04 02:55 53.89056 -3.50217 29649 ft 405 kts 291°
2026-05-04 02:55 53.90022 -3.54687 29071 ft 402 kts 291°
2026-05-04 02:55 53.90982 -3.59112 28507 ft 398 kts 291°
2026-05-04 02:56 53.91935 -3.63513 27965 ft 397 kts 291°
2026-05-04 02:56 53.92884 -3.67911 27418 ft 396 kts 291°
2026-05-04 02:56 53.93826 -3.72288 26864 ft 395 kts 291°
2026-05-04 02:56 53.94764 -3.76666 26282 ft 394 kts 291°
2026-05-04 02:57 53.95702 -3.81026 25706 ft 393 kts 292°
2026-05-04 02:57 53.96889 -3.85190 25160 ft 390 kts 300°
2026-05-04 02:57 53.98237 -3.89192 24601 ft 389 kts 301°
2026-05-04 02:57 53.99590 -3.93154 24020 ft 388 kts 301°
2026-05-04 02:58 54.00937 -3.97119 23456 ft 387 kts 300°
2026-05-04 02:58 54.02279 -4.01083 22904 ft 385 kts 300°
2026-05-04 02:58 54.03614 -4.05042 22341 ft 385 kts 300°
2026-05-04 02:58 54.04935 -4.08977 21769 ft 380 kts 300°
2026-05-04 02:59 54.06260 -4.12838 21215 ft 376 kts 303°
2026-05-04 02:59 54.07731 -4.16483 20679 ft 371 kts 305°
2026-05-04 02:59 54.09194 -4.19998 20179 ft 366 kts 306°
2026-05-04 02:59 54.10655 -4.23511 19696 ft 360 kts 306°
2026-05-04 03:00 54.12087 -4.26965 19230 ft 354 kts 305°
2026-05-04 03:00 54.13495 -4.30373 18773 ft 349 kts 305°
2026-05-04 03:00 54.14883 -4.33737 18333 ft 343 kts 305°
2026-05-04 03:00 54.16245 -4.37033 17918 ft 337 kts 305°
2026-05-04 03:01 54.17595 -4.40305 17518 ft 336 kts 305°
2026-05-04 03:01 54.18942 -4.43575 17088 ft 337 kts 305°
2026-05-04 03:01 54.20289 -4.46854 16664 ft 338 kts 305°
2026-05-04 03:01 54.21640 -4.50146 16249 ft 338 kts 305°
2026-05-04 03:02 54.22987 -4.53430 15845 ft 337 kts 305°
2026-05-04 03:02 54.24330 -4.56709 15443 ft 337 kts 305°
2026-05-04 03:02 54.25672 -4.59998 15030 ft 337 kts 305°
2026-05-04 03:02 54.26997 -4.63246 14615 ft 337 kts 305°
2026-05-04 03:03 54.28333 -4.66529 14208 ft 336 kts 305°
2026-05-04 03:03 54.29665 -4.69809 13794 ft 333 kts 305°
2026-05-04 03:03 54.30973 -4.73031 13408 ft 326 kts 305°
2026-05-04 03:03 54.32257 -4.76194 13009 ft 320 kts 305°
2026-05-04 03:04 54.33517 -4.79306 12640 ft 314 kts 305°
2026-05-04 03:04 54.34748 -4.82350 12275 ft 309 kts 305°
2026-05-04 03:04 54.35975 -4.85385 11916 ft 309 kts 305°
2026-05-04 03:04 54.37202 -4.88422 11542 ft 309 kts 305°
2026-05-04 03:05 54.38423 -4.91454 11171 ft 309 kts 305°
2026-05-04 03:05 54.39646 -4.94492 10811 ft 308 kts 305°
2026-05-04 03:05 54.40846 -4.97480 10522 ft 301 kts 306°
2026-05-04 03:05 54.42015 -5.00390 10320 ft 290 kts 306°
2026-05-04 03:06 54.43139 -5.03194 10128 ft 282 kts 306°
2026-05-04 03:06 54.44249 -5.05965 9853 ft 280 kts 306°
2026-05-04 03:06 54.45359 -5.08714 9532 ft 281 kts 306°
2026-05-04 03:06 54.46480 -5.11473 9192 ft 282 kts 306°
2026-05-04 03:07 54.47607 -5.14252 8851 ft 283 kts 306°
2026-05-04 03:07 54.48729 -5.17026 8514 ft 284 kts 306°
2026-05-04 03:07 54.49836 -5.19766 8181 ft 280 kts 306°
2026-05-04 03:07 54.51017 -5.22347 7855 ft 275 kts 317°
2026-05-04 03:08 54.52480 -5.24452 7552 ft 274 kts 323°
2026-05-04 03:08 54.53986 -5.26464 7230 ft 274 kts 323°
2026-05-04 03:08 54.55494 -5.28481 6899 ft 275 kts 323°
2026-05-04 03:08 54.56988 -5.30496 6571 ft 271 kts 323°
2026-05-04 03:09 54.58461 -5.32490 6245 ft 269 kts 323°
2026-05-04 03:09 54.59931 -5.34488 5899 ft 270 kts 323°
2026-05-04 03:09 54.61403 -5.36491 5568 ft 268 kts 322°
2026-05-04 03:09 54.62857 -5.38476 5250 ft 265 kts 322°
2026-05-04 03:10 54.64304 -5.40452 4937 ft 265 kts 322°
2026-05-04 03:10 54.65753 -5.42432 4603 ft 266 kts 322°
2026-05-04 03:10 54.67195 -5.44406 4272 ft 263 kts 322°
2026-05-04 03:10 54.68619 -5.46357 3980 ft 258 kts 322°
2026-05-04 03:11 54.70001 -5.48248 3808 ft 248 kts 322°
2026-05-04 03:11 54.71323 -5.50061 3678 ft 238 kts 322°
2026-05-04 03:11 54.72588 -5.51799 3561 ft 227 kts 322°
2026-05-04 03:11 54.73795 -5.53458 3456 ft 216 kts 322°
2026-05-04 03:12 54.74952 -5.55048 3262 ft 210 kts 322°
2026-05-04 03:12 54.76094 -5.56619 2989 ft 209 kts 322°
2026-05-04 03:12 54.77225 -5.58179 2700 ft 208 kts 322°
2026-05-04 03:12 54.78253 -5.59909 2438 ft 205 kts 304°
2026-05-04 03:13 54.78681 -5.62182 2246 ft 197 kts 272°
2026-05-04 03:13 54.78417 -5.64454 2041 ft 192 kts 250°
2026-05-04 03:13 54.77873 -5.66556 1976 ft 192 kts 241°
2026-05-04 03:13 54.77107 -5.68408 1982 ft 192 kts 229°
2026-05-04 03:14 54.76138 -5.70008 1994 ft 193 kts 220°
2026-05-04 03:14 54.75059 -5.71383 2001 ft 192 kts 213°
2026-05-04 03:14 54.73993 -5.72643 2016 ft 172 kts 215°
2026-05-04 03:14 54.73082 -5.73736 2007 ft 150 kts 216°
2026-05-04 03:15 54.72224 -5.74768 2010 ft 149 kts 216°
2026-05-04 03:15 54.71370 -5.75795 2033 ft 150 kts 216°
2026-05-04 03:15 54.70536 -5.76796 1926 ft 136 kts 216°
2026-05-04 03:15 54.69763 -5.77726 1745 ft 140 kts 216°
2026-05-04 03:16 54.68956 -5.78694 1560 ft 142 kts 216°
2026-05-04 03:16 54.68187 -5.79616 1384 ft 131 kts 216°
2026-05-04 03:16 54.67444 -5.80508 1214 ft 130 kts 216°
2026-05-04 03:16 54.66704 -5.81396 1039 ft 129 kts 216°
2026-05-04 03:17 54.65964 -5.82283 867 ft 129 kts 216°
2026-05-04 03:17 54.65232 -5.83163 691 ft 128 kts 217°
2026-05-04 03:17 54.64496 -5.84036 479 ft 128 kts 215°
2026-05-04 03:17 54.63770 -5.84912 322 ft 127 kts 216°
2026-05-04 03:18 54.63037 -5.85782 198 ft 127 kts 216°
2026-05-04 03:18 54.62314 -5.86649 38 ft 125 kts 215°
2026-05-04 03:18 54.61687 -5.87399 25 ft 78 kts 215°
2026-05-04 03:18 54.61444 -5.87692 17 ft 25 kts 216°
2026-05-04 03:19 54.61351 -5.87803 19 ft 8 kts 210°
2026-05-04 03:19 54.61297 -5.87759 20 ft 11 kts 124°
2026-05-04 03:19 54.61269 -5.87684 21 ft 1 kts 127°
2026-05-04 03:19 54.61256 -5.87655 21 ft 5 kts 127°
2026-05-04 03:20 54.61269 -5.87586 23 ft 9 kts 38°
2026-05-04 03:20 54.61326 -5.87514 25 ft 11 kts 35°
2026-05-04 03:20 54.61393 -5.87425 27 ft 13 kts 50°
2026-05-04 03:20 54.61426 -5.87353 27 ft 7 kts 45°
2026-05-04 03:21 54.61446 -5.87327 27 ft 0 kts 37°
2026-05-04 03:22 54.61447 -5.87327 27 ft 1 kts 37°
2026-05-04 03:22 54.61459 -5.87311 27 ft 4 kts 38°
2026-05-04 03:23 54.61489 -5.87274 27 ft 7 kts 35°
2026-05-04 03:23 54.61507 -5.87228 27 ft 4 kts 122°
2026-05-04 03:23 54.61493 -5.87213 27 ft 2 kts 154°
2026-05-04 03:23 54.61469 -5.87194 27 ft 3 kts 155°
2026-05-04 03:24 54.61466 -5.87191 27 ft 0 kts 154°
2026-05-04 03:24 54.61467 -5.87192 27 ft 0 kts 154°